Zurück zum Katalog

STARLINK-36372

AktivKommunikationSSO
NORAD 67889·PAYLOAD·🇺🇸 United States

Gestartet Feb 21, 2026 von Vandenberg Space Force Base

Loading…

Nächste Überflüge (nächste 24 Stunden)

TLE

AktuellSource: CelesTrak SupGP

Epoche: Sep 15, 2026, 02:49 UTC

1 67889C 26035L   26258.11784722  .00072662  00000+0  22560-2 0  2586
2 67889  97.2850 190.0351 0001773  97.3170  46.4376 15.33395865    14

Verfolge STARLINK-36372 in Echtzeit mit AllMySat

Download on the App Store